Time,TemperatureF,DewpointF,PressureIn,WindDirection,WindDirectionDegrees,WindSpeedMPH,WindSpeedGustMPH,Humidity,HourlyPrecipIn,Conditions,Clouds,dailyrainin,SoftwareType,DateUTC
2013-01-06 00:02:00,71.6,67.2,30.13,ESE,112,2.6,9.4,86,0.00,RA,,0.00,WeatherDisplay:10.37,2013-01-06 10:02:00,
2013-01-06 00:07:00,72.1,67.0,30.13,East,90,7.3,8.3,84,0.00,RA,,0.00,WeatherDisplay:10.37,2013-01-06 10:07:00,
2013-01-06 00:12:00,72.9,67.1,30.13,ESE,112,11.9,17.3,82,0.00,CLR,,0.00,WeatherDisplay:10.37,2013-01-06 10:12:00,
2013-01-06 00:17:00,72.9,67.1,30.13,East,90,7.5,13.8,82,0.00,CLR,,0.00,WeatherDisplay:10.37,2013-01-06 10:17:00,
2013-01-06 00:22:00,72.9,66.7,30.13,East,90,10.4,12.7,81,0.00,CLR,,0.00,WeatherDisplay:10.37,2013-01-06 10:22:00,
2013-01-06 00:28:00,72.7,66.5,30.13,ESE,112,10.1,11.9,81,0.00,CLR,,0.00,WeatherDisplay:10.37,2013-01-06 10:28:00,
2013-01-06 00:33:00,72.7,66.5,30.13,NNW,338,5.4,8.1,81,0.00,CLR,,0.00,WeatherDisplay:10.37,2013-01-06 10:33:00,
2013-01-06 00:38:00,72.7,66.5,30.13,East,90,9.4,16.1,81,0.00,CLR,,0.00,WeatherDisplay:10.37,2013-01-06 10:38:00,
2013-01-06 00:43:00,72.7,66.5,30.13,NNE,22,3.6,4.2,81,0.00,CLR,,0.00,WeatherDisplay:10.37,2013-01-06 10:43:00,
2013-01-06 00:48:00,72.7,66.9,30.13,East,90,9.0,11.5,82,0.00,CLR,,0.00,WeatherDisplay:10.37,2013-01-06 10:48:00,
2013-01-06 00:53:00,72.5,66.7,30.13,South,180,4.2,6.3,82,0.00,CLR,,0.00,WeatherDisplay:10.37,2013-01-06 10:53:00,
2013-01-06 00:58:00,72.5,66.7,30.12,East,90,9.3,12.4,82,0.00,CLR,,0.00,WeatherDisplay:10.37,2013-01-06 10:58:00,
2013-01-06 01:03:00,72.5,66.7,30.12,East,90,6.8,6.9,82,0.00,CLR,,0.00,WeatherDisplay:10.37,2013-01-06 11:03:00,
2013-01-06 01:08:00,72.3,66.5,30.12,ESE,112,8.5,9.2,82,0.00,CLR,,0.00,WeatherDisplay:10.37,2013-01-06 11:08:00,
2013-01-06 01:13:00,72.5,66.7,30.12,NNE,22,3.4,6.9,82,0.00,CLR,,0.00,WeatherDisplay:10.37,2013-01-06 11:13:00,
2013-01-06 01:18:00,72.7,67.2,30.12,East,90,4.7,5.8,83,0.00,CLR,,0.00,WeatherDisplay:10.37,2013-01-06 11:18:00,
2013-01-06 01:23:00,72.5,66.7,30.12,East,90,9.3,12.7,82,0.00,CLR,,0.00,WeatherDisplay:10.37,2013-01-06 11:23:00,
2013-01-06 01:29:00,72.5,66.7,30.12,ENE,68,7.1,15.0,82,0.00,CLR,,0.00,WeatherDisplay:10.37,2013-01-06 11:29:00,
2013-01-06 01:34:00,72.7,66.9,30.12,ESE,112,12.1,13.0,82,0.00,CLR,,0.00,WeatherDisplay:10.37,2013-01-06 11:34:00,
2013-01-06 01:39:00,72.9,66.7,30.12,East,90,11.5,13.8,81,0.00,CLR,,0.00,WeatherDisplay:10.37,2013-01-06 11:39:00,
2013-01-06 01:44:00,73.0,66.5,30.12,East,90,11.1,12.7,80,0.00,CLR,,0.00,WeatherDisplay:10.37,2013-01-06 11:44:00,
2013-01-06 01:49:00,73.2,66.7,30.11,East,90,9.1,10.4,80,0.00,CLR,,0.00,WeatherDisplay:10.37,2013-01-06 11:49:00,
2013-01-06 01:54:00,73.0,66.5,30.11,SSE,158,7.7,9.2,80,0.00,CLR,,0.00,WeatherDisplay:10.37,2013-01-06 11:54:00,
2013-01-06 01:59:00,72.9,66.4,30.11,ESE,112,11.9,13.8,80,0.00,CLR,,0.00,WeatherDisplay:10.37,2013-01-06 11:59:00,
2013-01-06 02:04:00,73.0,66.5,30.11,SSW,202,6.8,10.4,80,0.00,CLR,,0.00,WeatherDisplay:10.37,2013-01-06 12:04:00,
2013-01-06 02:09:00,72.7,66.2,30.11,ENE,68,5.0,8.3,80,0.00,CLR,,0.00,WeatherDisplay:10.37,2013-01-06 12:09:00,
2013-01-06 02:14:00,72.9,66.0,30.10,SSE,158,10.1,12.7,79,0.00,CLR,,0.00,WeatherDisplay:10.37,2013-01-06 12:14:00,
2013-01-06 02:19:00,73.0,66.1,30.10,ESE,112,9.7,13.8,79,0.00,CLR,,0.00,WeatherDisplay:10.37,2013-01-06 12:19:00,
2013-01-06 02:24:00,73.0,66.1,30.10,ESE,112,7.9,12.7,79,0.00,CLR,,0.00,WeatherDisplay:10.37,2013-01-06 12:24:00,
2013-01-06 02:29:00,73.0,66.5,30.10,NNE,22,2.4,9.2,80,0.00,CLR,,0.00,WeatherDisplay:10.37,2013-01-06 12:29:00,
2013-01-06 02:34:00,72.7,66.9,30.10,North,360,3.2,4.6,82,0.00,CLR,,0.00,WeatherDisplay:10.37,2013-01-06 12:34:00,
2013-01-06 02:39:00,72.7,67.2,30.10,ENE,68,6.3,8.1,83,0.00,CLR,,0.00,WeatherDisplay:10.37,2013-01-06 12:39:00,
2013-01-06 02:45:00,72.7,67.2,30.10,ENE,71,6.0,6.0,83,0.00,CLR,,0.00,WeatherDisplay:10.37,2013-01-06 12:45:00,
2013-01-06 02:50:00,72.3,66.5,30.10,ENE,70,6.0,12.0,82,0.00,CLR,,0.00,WeatherDisplay:10.37,2013-01-06 12:50:00,
2013-01-06 02:55:00,72.5,66.7,30.10,ENE,75,5.0,8.0,82,0.00,CLR,,0.00,WeatherDisplay:10.37,2013-01-06 12:55:00,
2013-01-06 03:00:00,72.6,66.4,30.10,East,90,14.0,17.0,81,0.00,CLR,,0.00,WeatherDisplay:10.37,2013-01-06 13:00:00,
2013-01-06 03:05:00,72.7,66.2,30.10,ESE,112,6.8,6.9,80,0.00,CLR,,0.00,WeatherDisplay:10.37,2013-01-06 13:05:00,
2013-01-06 03:10:00,72.7,66.2,30.10,East,90,4.7,5.8,80,0.00,CLR,,0.00,WeatherDisplay:10.37,2013-01-06 13:10:00,
2013-01-06 03:15:00,72.5,66.0,30.10,ESE,112,7.9,10.4,80,0.00,CLR,,0.00,WeatherDisplay:10.37,2013-01-06 13:15:00,
2013-01-06 03:20:00,72.3,66.1,30.10,NNW,338,5.8,10.4,81,0.00,CLR,,0.00,WeatherDisplay:10.37,2013-01-06 13:20:00,
2013-01-06 03:25:00,72.5,66.3,30.09,NE,45,9.4,13.8,81,0.00,CLR,,0.00,WeatherDisplay:10.37,2013-01-06 13:25:00,
2013-01-06 03:30:00,72.3,66.1,30.09,SSE,158,6.6,7.3,81,0.00,CLR,,0.00,WeatherDisplay:10.37,2013-01-06 13:30:00,
2013-01-06 03:35:00,72.3,66.1,30.09,East,90,5.0,9.2,81,0.00,CLR,,0.00,WeatherDisplay:10.37,2013-01-06 13:35:00,
2013-01-06 03:40:00,72.3,66.1,30.09,SSE,158,5.5,6.9,81,0.00,CLR,,0.00,WeatherDisplay:10.37,2013-01-06 13:40:00,
2013-01-06 03:45:00,72.7,66.5,30.09,NNE,22,3.8,6.3,81,0.00,CLR,,0.00,WeatherDisplay:10.37,2013-01-06 13:45:00,
2013-01-06 03:50:00,72.7,66.5,30.09,NE,45,6.8,8.8,81,0.00,CLR,,0.00,WeatherDisplay:10.37,2013-01-06 13:50:00,
2013-01-06 03:55:00,72.7,66.9,30.09,NNE,22,5.2,6.9,82,0.00,CLR,,0.00,WeatherDisplay:10.37,2013-01-06 13:55:00,
2013-01-06 04:00:00,72.7,66.9,30.09,ESE,112,3.7,6.8,82,0.00,CLR,,0.00,WeatherDisplay:10.37,2013-01-06 14:00:00,
2013-01-06 04:05:00,72.5,66.3,30.09,ESE,112,8.4,14.0,81,0.00,CLR,,0.00,WeatherDisplay:10.37,2013-01-06 14:05:00,
2013-01-06 04:10:00,72.7,66.5,30.09,NE,45,5.3,13.8,81,0.00,CLR,,0.00,WeatherDisplay:10.37,2013-01-06 14:10:00,
2013-01-06 04:16:00,72.9,66.7,30.09,NW,315,7.0,10.4,81,0.00,CLR,,0.00,WeatherDisplay:10.37,2013-01-06 14:16:00,
2013-01-06 04:21:00,72.7,66.5,30.09,ESE,112,8.7,9.2,81,0.00,CLR,,0.00,WeatherDisplay:10.37,2013-01-06 14:21:00,
2013-01-06 04:26:00,72.9,66.7,30.10,East,90,10.2,11.5,81,0.00,CLR,,0.00,WeatherDisplay:10.37,2013-01-06 14:26:00,
2013-01-06 04:31:00,73.0,66.5,30.10,SE,135,10.8,11.5,80,0.00,CLR,,0.00,WeatherDisplay:10.37,2013-01-06 14:31:00,
2013-01-06 04:36:00,73.0,66.5,30.10,NNE,22,10.5,11.5,80,0.00,CLR,,0.00,WeatherDisplay:10.37,2013-01-06 14:36:00,
2013-01-06 04:41:00,72.5,66.0,30.10,NE,45,6.4,10.4,80,0.00,CLR,,0.00,WeatherDisplay:10.37,2013-01-06 14:41:00,
2013-01-06 04:46:00,73.0,66.5,30.11,NNW,338,6.1,11.5,80,0.00,CLR,,0.00,WeatherDisplay:10.37,2013-01-06 14:46:00,
2013-01-06 04:51:00,72.9,66.4,30.11,NNW,338,6.7,9.2,80,0.00,CLR,,0.00,WeatherDisplay:10.37,2013-01-06 14:51:00,
2013-01-06 04:56:00,72.7,66.2,30.11,SSW,202,3.6,9.2,80,0.00,CLR,,0.00,WeatherDisplay:10.37,2013-01-06 14:56:00,
2013-01-06 05:01:00,72.7,66.2,30.10,South,180,5.1,5.8,80,0.00,CLR,,0.00,WeatherDisplay:10.37,2013-01-06 15:01:00,
2013-01-06 05:06:00,72.5,66.0,30.10,East,90,5.3,6.9,80,0.00,CLR,,0.00,WeatherDisplay:10.37,2013-01-06 15:06:00,
2013-01-06 05:11:00,72.7,66.2,30.10,East,90,6.9,9.2,80,0.00,CLR,,0.00,WeatherDisplay:10.37,2013-01-06 15:11:00,
2013-01-06 05:17:00,72.7,66.2,30.10,SSW,202,4.2,5.8,80,0.00,CLR,,0.00,WeatherDisplay:10.37,2013-01-06 15:17:00,
2013-01-06 05:22:00,72.5,66.3,30.11,NE,45,5.5,6.9,81,0.00,CLR,,0.00,WeatherDisplay:10.37,2013-01-06 15:22:00,
2013-01-06 05:27:00,72.5,66.7,30.11,WNW,292,7.2,8.1,82,0.00,CLR,,0.00,WeatherDisplay:10.37,2013-01-06 15:27:00,
2013-01-06 05:32:00,72.5,66.7,30.11,East,90,6.5,10.9,82,0.00,CLR,,0.00,WeatherDisplay:10.37,2013-01-06 15:32:00,
2013-01-06 05:37:00,72.7,66.5,30.10,ESE,112,5.7,6.9,81,0.00,CLR,,0.00,WeatherDisplay:10.37,2013-01-06 15:37:00,
2013-01-06 05:42:00,72.7,66.5,30.10,South,180,2.6,5.8,81,0.00,CLR,,0.00,WeatherDisplay:10.37,2013-01-06 15:42:00,
2013-01-06 05:47:00,72.7,66.5,30.11,WNW,292,4.7,4.7,81,0.00,CLR,,0.00,WeatherDisplay:10.37,2013-01-06 15:47:00,
2013-01-06 05:52:00,72.9,66.7,30.11,East,90,7.0,9.2,81,0.00,CLR,,0.00,WeatherDisplay:10.37,2013-01-06 15:52:00,
2013-01-06 05:57:00,72.7,66.5,30.11,SE,135,8.5,10.4,81,0.00,CLR,,0.00,WeatherDisplay:10.37,2013-01-06 15:57:00,
2013-01-06 06:02:00,72.9,66.7,30.11,ESE,112,8.7,11.4,81,0.00,CLR,,0.00,WeatherDisplay:10.37,2013-01-06 16:02:00,
2013-01-06 06:07:00,72.7,66.5,30.11,West,270,5.6,8.1,81,0.00,CLR,,0.00,WeatherDisplay:10.37,2013-01-06 16:07:00,
2013-01-06 06:12:00,72.7,66.9,30.10,South,180,2.5,6.9,82,0.00,CLR,,0.00,WeatherDisplay:10.37,2013-01-06 16:12:00,
2013-01-06 06:17:00,72.7,66.9,30.10,ESE,112,4.7,4.7,82,0.00,CLR,,0.00,WeatherDisplay:10.37,2013-01-06 16:17:00,
2013-01-06 06:23:00,72.9,67.1,30.11,NE,45,2.6,4.6,82,0.00,CLR,,0.00,WeatherDisplay:10.37,2013-01-06 16:23:00,
2013-01-06 06:28:00,72.9,67.1,30.11,North,360,6.0,8.3,82,0.00,CLR,,0.00,WeatherDisplay:10.37,2013-01-06 16:28:00,
2013-01-06 06:33:00,72.9,67.4,30.11,East,90,9.4,10.4,83,0.00,CLR,,0.00,WeatherDisplay:10.37,2013-01-06 16:33:00,
2013-01-06 06:38:00,72.9,67.4,30.11,ENE,68,5.4,9.9,83,0.00,CLR,,0.00,WeatherDisplay:10.37,2013-01-06 16:38:00,
2013-01-06 06:43:00,72.7,67.2,30.11,SSE,158,0.8,5.8,83,0.00,CLR,,0.00,WeatherDisplay:10.37,2013-01-06 16:43:00,
2013-01-06 06:48:00,72.9,67.4,30.11,ESE,112,9.7,12.7,83,0.00,CLR,,0.00,WeatherDisplay:10.37,2013-01-06 16:48:00,
2013-01-06 06:53:00,72.9,67.1,30.11,ESE,112,8.5,10.4,82,0.00,CLR,,0.00,WeatherDisplay:10.37,2013-01-06 16:53:00,
2013-01-06 06:58:00,71.8,67.0,30.11,East,90,6.1,13.8,85,0.01,RA,,0.01,WeatherDisplay:10.37,2013-01-06 16:58:00,
2013-01-06 07:03:00,71.4,67.3,30.11,ESE,112,11.7,13.8,87,0.02,RA,,0.02,WeatherDisplay:10.37,2013-01-06 17:03:00,
2013-01-06 07:08:00,71.4,67.0,30.11,ESE,112,9.2,16.0,86,0.02,RA,,0.02,WeatherDisplay:10.37,2013-01-06 17:08:00,
2013-01-06 07:13:00,71.6,67.2,30.11,ESE,112,6.4,8.3,86,0.02,CLR,,0.02,WeatherDisplay:10.37,2013-01-06 17:13:00,
2013-01-06 07:18:00,71.6,66.8,30.11,NE,45,13.0,13.0,85,0.02,CLR,,0.02,WeatherDisplay:10.37,2013-01-06 17:18:00,
2013-01-06 07:23:00,72.0,67.2,30.11,ESE,112,9.7,10.4,85,0.02,CLR,,0.02,WeatherDisplay:10.37,2013-01-06 17:23:00,
2013-01-06 07:29:00,72.0,67.2,30.11,East,90,8.2,11.5,85,0.02,CLR,,0.02,WeatherDisplay:10.37,2013-01-06 17:29:00,
2013-01-06 07:34:00,72.0,67.6,30.12,NE,45,7.7,8.1,86,0.02,CLR,,0.02,WeatherDisplay:10.37,2013-01-06 17:34:00,
2013-01-06 07:39:00,71.8,67.0,30.12,SSE,158,7.1,10.4,85,0.02,CLR,,0.02,WeatherDisplay:10.37,2013-01-06 17:39:00,
2013-01-06 07:44:00,71.8,67.0,30.12,NNE,22,6.9,10.4,85,0.02,CLR,,0.02,WeatherDisplay:10.37,2013-01-06 17:44:00,
2013-01-06 07:49:00,72.0,67.6,30.12,ESE,112,9.3,12.7,86,0.02,CLR,,0.02,WeatherDisplay:10.37,2013-01-06 17:49:00,
2013-01-06 07:54:00,72.0,67.6,30.12,East,90,8.5,11.5,86,0.02,CLR,,0.02,WeatherDisplay:10.37,2013-01-06 17:54:00,
2013-01-06 07:59:00,72.1,67.3,30.12,South,180,6.8,9.2,85,0.01,RA,,0.03,WeatherDisplay:10.37,2013-01-06 17:59:00,
2013-01-06 08:04:00,72.1,67.3,30.12,West,270,4.6,10.4,85,0.01,RA,,0.03,WeatherDisplay:10.37,2013-01-06 18:04:00,
2013-01-06 08:09:00,72.3,67.5,30.12,East,90,10.8,16.0,85,0.01,CLR,,0.03,WeatherDisplay:10.37,2013-01-06 18:09:00,
2013-01-06 08:14:00,73.4,68.6,30.12,NNE,22,6.2,8.1,85,0.01,CLR,,0.03,WeatherDisplay:10.37,2013-01-06 18:14:00,
2013-01-06 08:19:00,73.4,67.9,30.12,ENE,68,6.4,11.5,83,0.01,CLR,,0.03,WeatherDisplay:10.37,2013-01-06 18:19:00,
2013-01-06 08:24:00,73.2,67.7,30.13,NNE,22,6.7,6.7,83,0.01,CLR,,0.03,WeatherDisplay:10.37,2013-01-06 18:24:00,
2013-01-06 08:29:00,73.0,67.5,30.13,East,90,10.5,10.9,83,0.01,CLR,,0.03,WeatherDisplay:10.37,2013-01-06 18:29:00,
2013-01-06 08:35:00,73.0,67.5,30.13,East,93,10.0,11.0,83,0.00,CLR,,0.03,WeatherDisplay:10.37,2013-01-06 18:35:00,
2013-01-06 08:40:00,73.2,68.1,30.13,NE,45,9.0,12.7,84,0.01,CLR,,0.03,WeatherDisplay:10.37,2013-01-06 18:40:00,
2013-01-06 08:45:00,73.4,68.3,30.13,East,90,14.3,17.6,84,0.01,CLR,,0.03,WeatherDisplay:10.37,2013-01-06 18:45:00,
2013-01-06 08:50:00,73.0,67.9,30.13,ENE,68,9.8,10.9,84,0.01,CLR,,0.03,WeatherDisplay:10.37,2013-01-06 18:50:00,
2013-01-06 08:55:00,73.4,68.3,30.13,East,88,10.0,15.0,84,0.00,CLR,,0.03,WeatherDisplay:10.37,2013-01-06 18:55:00,
2013-01-06 09:00:00,73.5,68.3,30.13,East,94,9.0,16.0,84,0.00,CLR,,0.03,WeatherDisplay:10.37,2013-01-06 19:00:00,
2013-01-06 09:05:00,73.6,68.5,30.13,NE,45,13.5,13.8,84,0.00,CLR,,0.03,WeatherDisplay:10.37,2013-01-06 19:05:00,
2013-01-06 09:10:00,73.6,68.5,30.13,ENE,58,15.0,17.0,84,0.00,CLR,,0.03,WeatherDisplay:10.37,2013-01-06 19:10:00,
2013-01-06 09:15:00,73.6,68.5,30.14,East,90,16.6,16.6,84,0.00,CLR,,0.03,WeatherDisplay:10.37,2013-01-06 19:15:00,
2013-01-06 09:20:00,74.3,67.7,30.14,ESE,103,6.0,17.0,80,0.00,CLR,,0.03,WeatherDisplay:10.37,2013-01-06 19:20:00,
2013-01-06 09:25:00,74.7,67.8,30.14,NE,45,16.5,16.5,79,0.00,CLR,,0.03,WeatherDisplay:10.37,2013-01-06 19:25:00,
2013-01-06 09:30:00,74.3,67.4,30.14,East,86,12.0,15.0,79,0.00,CLR,,0.03,WeatherDisplay:10.37,2013-01-06 19:30:00,
2013-01-06 09:35:00,74.3,67.4,30.14,ENE,75,15.0,15.0,79,0.00,CLR,,0.03,WeatherDisplay:10.37,2013-01-06 19:35:00,
2013-01-06 09:40:00,74.5,67.6,30.14,East,85,10.0,16.0,79,0.00,CLR,,0.03,WeatherDisplay:10.37,2013-01-06 19:40:00,
2013-01-06 09:45:00,74.3,67.4,30.14,ESE,112,11.9,15.0,79,0.00,CLR,,0.03,WeatherDisplay:10.37,2013-01-06 19:45:00,
2013-01-06 09:50:00,74.5,67.9,30.14,East,81,10.0,17.0,80,0.00,CLR,,0.03,WeatherDisplay:10.37,2013-01-06 19:50:00,
2013-01-06 09:55:00,74.5,67.9,30.14,ESE,112,11.4,11.5,80,0.00,CLR,,0.03,WeatherDisplay:10.37,2013-01-06 19:55:00,
2013-01-06 10:00:00,75.2,69.0,30.14,SE,135,9.7,11.5,81,0.00,CLR,,0.03,WeatherDisplay:10.37,2013-01-06 20:00:00,
2013-01-06 10:05:00,74.5,67.6,30.14,East,90,13.6,16.1,79,0.00,CLR,,0.03,WeatherDisplay:10.37,2013-01-06 20:05:00,
2013-01-06 10:10:00,74.5,67.6,30.14,ESE,112,13.0,16.1,79,0.00,CLR,,0.03,WeatherDisplay:10.37,2013-01-06 20:10:00,
2013-01-06 10:11:00,74.3,67.4,30.14,NE,45,14.2,18.4,79,0.00,CLR,,0.03,WeatherDisplay:10.37,2013-01-06 20:11:00,
2013-01-06 10:13:00,74.5,67.6,30.14,ESE,112,8.7,11.4,79,0.00,CLR,,0.03,WeatherDisplay:10.37,2013-01-06 20:13:00,
2013-01-06 10:18:00,74.7,67.8,30.14,NE,45,8.1,13.5,79,0.00,CLR,,0.03,WeatherDisplay:10.37,2013-01-06 20:18:00,
2013-01-06 10:23:00,74.5,67.2,30.13,South,180,11.4,11.5,78,0.00,CLR,,0.03,WeatherDisplay:10.37,2013-01-06 20:23:00,
2013-01-06 10:28:00,74.8,67.8,30.13,ESE,112,10.2,11.5,79,0.00,CLR,,0.03,WeatherDisplay:10.37,2013-01-06 20:28:00,
2013-01-06 10:33:00,74.7,67.8,30.13,NE,45,6.4,8.1,79,0.00,CLR,,0.03,WeatherDisplay:10.37,2013-01-06 20:33:00,
2013-01-06 10:38:00,75.0,68.0,30.12,SSE,158,8.0,10.4,79,0.00,CLR,,0.03,WeatherDisplay:10.37,2013-01-06 20:38:00,
2013-01-06 10:43:00,74.5,67.6,30.12,ENE,68,14.7,16.1,79,0.00,CLR,,0.03,WeatherDisplay:10.37,2013-01-06 20:43:00,
2013-01-06 10:48:00,75.0,68.4,30.12,ENE,68,12.9,18.1,80,0.00,CLR,,0.03,WeatherDisplay:10.37,2013-01-06 20:48:00,
2013-01-06 10:53:00,75.0,67.7,30.12,ESE,112,9.4,10.4,78,0.00,CLR,,0.03,WeatherDisplay:10.37,2013-01-06 20:53:00,
2013-01-06 10:58:00,75.2,67.9,30.12,ESE,112,7.9,11.5,78,0.00,CLR,,0.03,WeatherDisplay:10.37,2013-01-06 20:58:00,
2013-01-06 11:00:00,75.2,67.9,30.12,NNE,22,14.8,17.6,78,0.00,CLR,,0.03,WeatherDisplay:10.37,2013-01-06 21:00:00,
2013-01-06 11:05:00,75.2,67.9,30.12,ESE,112,16.8,20.2,78,0.00,CLR,,0.03,WeatherDisplay:10.37,2013-01-06 21:05:00,
2013-01-06 11:10:00,75.7,68.0,30.10,ESE,112,9.1,10.4,77,0.00,CLR,,0.03,WeatherDisplay:10.37,2013-01-06 21:10:00,
2013-01-06 11:15:00,75.9,67.8,30.10,East,90,9.3,16.1,76,0.00,CLR,,0.03,WeatherDisplay:10.37,2013-01-06 21:15:00,
2013-01-06 11:20:00,75.6,68.3,30.10,SE,135,10.6,13.8,78,0.00,CLR,,0.03,WeatherDisplay:10.37,2013-01-06 21:20:00,
2013-01-06 11:25:00,75.6,68.6,30.10,ESE,112,15.1,18.1,79,0.00,CLR,,0.03,WeatherDisplay:10.37,2013-01-06 21:25:00,
2013-01-06 11:31:00,75.6,68.6,30.10,East,90,9.8,12.7,79,0.00,CLR,,0.03,WeatherDisplay:10.37,2013-01-06 21:31:00,
2013-01-06 11:36:00,75.4,68.1,30.11,ESE,112,13.0,16.1,78,0.00,CLR,,0.03,WeatherDisplay:10.37,2013-01-06 21:36:00,
2013-01-06 11:41:00,75.9,68.5,30.11,East,90,6.4,8.1,78,0.00,CLR,,0.03,WeatherDisplay:10.37,2013-01-06 21:41:00,
2013-01-06 11:46:00,76.3,68.2,30.11,East,90,14.8,16.1,76,0.00,CLR,,0.03,WeatherDisplay:10.37,2013-01-06 21:46:00,
2013-01-06 11:51:00,75.7,68.0,30.10,SSE,158,13.5,13.8,77,0.00,CLR,,0.03,WeatherDisplay:10.37,2013-01-06 21:51:00,